WZZ9445 LCLK-UDSG

Flight info

Callsign WZZ9445
Flight time 1h 34m
Altitude 28000
Route RUDER DCT BAPAX B15 VESAR/N0450F360 UB545 EVKIT/N0442F350 DCT YAPZU DCT ADKAR UT470 GAZ UW701 ERZ UT309 NIVLA/N0386F270 T309 KAR B111 REBLO
Aircraft A321/M-SDE1E2E3FGIJ1J4RWXY/LB1

Departure

Time 2026-05-04 08:14
Airport Larnaca International Airport (LCLK)

Arrival

Time 2026-05-04 09:49
Airport Shirak International Airport (UDSG)
Time Latitude Longitude Altitude Speed Heading
2026-05-04 07:51 34.86949 33.61141 19 ft 0 kts 230°
2026-05-04 08:05 34.86952 33.61147 19 ft 4 kts 227°
2026-05-04 08:05 34.86973 33.61167 19 ft 4 kts 212°
2026-05-04 08:05 34.86995 33.61185 20 ft 4 kts 215°
2026-05-04 08:06 34.87017 33.61202 21 ft 4 kts 194°
2026-05-04 08:06 34.87030 33.61202 19 ft 0 kts 135°
2026-05-04 08:08 34.86992 33.61248 19 ft 8 kts 135°
2026-05-04 08:08 34.86938 33.61314 19 ft 16 kts 136°
2026-05-04 08:10 34.87788 33.62535 17 ft 27 kts 45°
2026-05-04 08:11 34.87913 33.62688 17 ft 20 kts 45°
2026-05-04 08:11 34.88128 33.62951 16 ft 24 kts 44°
2026-05-04 08:11 34.88249 33.63097 17 ft 25 kts 45°
2026-05-04 08:12 34.88375 33.63249 18 ft 26 kts 45°
2026-05-04 08:12 34.88438 33.63384 16 ft 16 kts 109°
2026-05-04 08:12 34.88364 33.63486 18 ft 17 kts 137°
2026-05-04 08:12 34.88273 33.63484 16 ft 12 kts 221°
2026-05-04 08:13 34.88243 33.63447 15 ft 0 kts 225°
2026-05-04 08:13 34.88228 33.63430 15 ft 15 kts 225°
2026-05-04 08:13 34.87959 33.63104 18 ft 93 kts 223°
2026-05-04 08:14 34.87343 33.62342 29 ft 155 kts 225°
2026-05-04 08:14 34.86583 33.61425 824 ft 150 kts 225°
2026-05-04 08:14 34.85858 33.60542 1575 ft 152 kts 228°
2026-05-04 08:16 34.81507 33.66093 5805 ft 299 kts 40°
2026-05-04 08:16 34.83048 33.67806 6700 ft 301 kts 37°
2026-05-04 08:16 34.84624 33.69527 7528 ft 306 kts 38°
2026-05-04 08:17 34.86223 33.71266 8355 ft 311 kts 38°
2026-05-04 08:17 34.87840 33.73053 9192 ft 317 kts 41°
2026-05-04 08:17 34.89314 33.75091 9995 ft 324 kts 49°
2026-05-04 08:17 34.90672 33.77333 10426 ft 344 kts 53°
2026-05-04 08:19 35.01037 33.95729 15073 ft 392 kts 52°
2026-05-04 08:19 35.02627 33.98450 15768 ft 397 kts 52°
2026-05-04 08:20 35.04239 34.01213 16462 ft 401 kts 52°
2026-05-04 08:20 35.05836 34.03963 17140 ft 405 kts 52°
2026-05-04 08:20 35.07472 34.06786 17834 ft 409 kts 52°
2026-05-04 08:20 35.09128 34.09645 18473 ft 413 kts 52°
2026-05-04 08:21 35.10786 34.12514 19067 ft 417 kts 52°
2026-05-04 08:21 35.12452 34.15401 19667 ft 421 kts 52°
2026-05-04 08:21 35.14145 34.18339 20269 ft 425 kts 53°
2026-05-04 08:21 35.15849 34.21296 20867 ft 429 kts 53°
2026-05-04 08:22 35.17575 34.24290 21465 ft 433 kts 53°
2026-05-04 08:22 35.19317 34.27310 22069 ft 437 kts 53°
2026-05-04 08:24 35.31885 34.49243 25573 ft 462 kts 53°
2026-05-04 08:24 35.33717 34.52434 26007 ft 465 kts 53°
2026-05-04 08:24 35.35581 34.55687 26439 ft 469 kts 53°
2026-05-04 08:24 35.37465 34.58984 26849 ft 472 kts 53°
2026-05-04 08:25 35.39138 34.61918 27238 ft 475 kts 53°
2026-05-04 08:25 35.40997 34.65183 27635 ft 478 kts 53°
2026-05-04 08:25 35.42934 34.68592 27816 ft 478 kts 53°
2026-05-04 08:25 35.44775 34.71841 27838 ft 462 kts 53°
2026-05-04 08:26 35.46594 34.75052 27841 ft 455 kts 53°
2026-05-04 08:27 35.59145 34.97227 27845 ft 451 kts 54°
2026-05-04 08:28 35.60925 35.00381 27844 ft 451 kts 54°
2026-05-04 08:28 35.62694 35.03514 27845 ft 451 kts 54°
2026-05-04 08:28 35.64431 35.06593 27845 ft 451 kts 54°
2026-05-04 08:28 35.66244 35.09810 27844 ft 451 kts 54°
2026-05-04 08:29 35.68046 35.13020 27846 ft 451 kts 54°
2026-05-04 08:29 35.69830 35.16210 27848 ft 451 kts 54°
2026-05-04 08:29 35.71608 35.19393 27847 ft 451 kts 54°
2026-05-04 08:31 35.84036 35.41642 27858 ft 451 kts 55°
2026-05-04 08:33 35.96403 35.63940 27866 ft 451 kts 55°
2026-05-04 08:33 35.98176 35.67142 27869 ft 451 kts 55°
2026-05-04 08:35 36.10550 35.89598 27868 ft 453 kts 56°
2026-05-04 08:35 36.12290 35.92769 27883 ft 454 kts 56°
2026-05-04 08:35 36.14070 35.96015 27885 ft 455 kts 56°
2026-05-04 08:35 36.15836 35.99239 27881 ft 454 kts 56°
2026-05-04 08:37 36.26429 36.18654 27877 ft 454 kts 56°
2026-05-04 08:37 36.28199 36.21908 27881 ft 454 kts 56°
2026-05-04 08:37 36.29965 36.25154 27885 ft 454 kts 57°
2026-05-04 08:38 36.31724 36.28388 27881 ft 454 kts 57°
2026-05-04 08:38 36.33496 36.31646 27886 ft 455 kts 57°
2026-05-04 08:38 36.35262 36.34899 27881 ft 455 kts 57°
2026-05-04 08:40 36.50299 36.54904 27890 ft 455 kts 44°
2026-05-04 08:40 36.52559 36.57653 27888 ft 455 kts 44°
2026-05-04 08:40 36.54811 36.60397 27890 ft 455 kts 44°
2026-05-04 08:41 36.57083 36.63168 27896 ft 456 kts 44°
2026-05-04 08:41 36.59348 36.65933 27900 ft 456 kts 44°
2026-05-04 08:41 36.61569 36.68652 27901 ft 456 kts 44°
2026-05-04 08:41 36.63863 36.71458 27902 ft 456 kts 44°
2026-05-04 08:42 36.66083 36.74174 27901 ft 456 kts 44°
2026-05-04 08:42 36.68341 36.76939 27901 ft 456 kts 44°
2026-05-04 08:42 36.70613 36.79722 27903 ft 456 kts 44°
2026-05-04 08:42 36.72881 36.82501 27904 ft 456 kts 44°
2026-05-04 08:43 36.75132 36.85264 27905 ft 456 kts 44°
2026-05-04 08:43 36.77388 36.88038 27905 ft 456 kts 44°
2026-05-04 08:43 36.79642 36.90807 27910 ft 456 kts 44°
2026-05-04 08:43 36.81885 36.93561 27920 ft 456 kts 44°
2026-05-04 08:44 36.84153 36.96348 27921 ft 456 kts 44°
2026-05-04 08:44 36.86432 36.99159 27924 ft 456 kts 45°
2026-05-04 08:46 37.02164 37.18631 27914 ft 455 kts 45°
2026-05-04 08:46 37.04382 37.21385 27913 ft 456 kts 45°
2026-05-04 08:46 37.06632 37.24185 27912 ft 455 kts 45°
2026-05-04 08:46 37.08873 37.26975 27912 ft 456 kts 45°
2026-05-04 08:47 37.11127 37.29781 27910 ft 456 kts 45°
2026-05-04 08:47 37.13356 37.32559 27909 ft 456 kts 45°
2026-05-04 08:47 37.15604 37.35366 27910 ft 456 kts 45°
2026-05-04 08:47 37.17848 37.38169 27909 ft 456 kts 45°
2026-05-04 08:48 37.20095 37.40978 27913 ft 457 kts 45°
2026-05-04 08:48 37.22358 37.43806 27912 ft 457 kts 45°
2026-05-04 08:48 37.24588 37.46591 27911 ft 457 kts 45°
2026-05-04 08:48 37.26841 37.49412 27917 ft 458 kts 46°
2026-05-04 08:49 37.29072 37.52215 27914 ft 458 kts 46°
2026-05-04 08:50 37.42548 37.69174 27930 ft 458 kts 46°
2026-05-04 08:50 37.44799 37.72010 27930 ft 458 kts 46°
2026-05-04 08:51 37.47056 37.74860 27934 ft 458 kts 46°
2026-05-04 08:51 37.49308 37.77709 27939 ft 458 kts 46°
2026-05-04 08:51 37.51534 37.80529 27940 ft 458 kts 46°
2026-05-04 08:51 37.53793 37.83394 27940 ft 458 kts 46°
2026-05-04 08:52 37.56025 37.86229 27943 ft 458 kts 46°
2026-05-04 08:52 37.58258 37.89066 27946 ft 458 kts 46°
2026-05-04 08:52 37.60499 37.91914 27945 ft 458 kts 46°
2026-05-04 08:52 37.62741 37.94766 27944 ft 458 kts 46°
2026-05-04 08:53 37.64986 37.97620 27942 ft 459 kts 46°
2026-05-04 08:54 37.80678 38.17633 27951 ft 459 kts 47°
2026-05-04 08:55 37.82932 38.20520 27947 ft 459 kts 47°
2026-05-04 08:55 37.85172 38.23396 27950 ft 460 kts 47°
2026-05-04 08:55 37.87422 38.26288 27946 ft 459 kts 47°
2026-05-04 08:55 37.89665 38.29175 27947 ft 460 kts 47°
2026-05-04 08:57 38.05366 38.49441 27936 ft 461 kts 47°
2026-05-04 09:01 38.37796 38.88750 27899 ft 463 kts 40°
2026-05-04 09:01 38.40308 38.91318 27899 ft 464 kts 40°
2026-05-04 09:01 38.42824 38.93893 27912 ft 464 kts 40°
2026-05-04 09:01 38.45309 38.96435 27907 ft 464 kts 40°
2026-05-04 09:02 38.47862 38.99046 27902 ft 463 kts 40°
2026-05-04 09:02 38.50332 39.01573 27901 ft 464 kts 40°
2026-05-04 09:02 38.52862 39.04130 27896 ft 464 kts 40°
2026-05-04 09:02 38.55412 39.06694 27903 ft 464 kts 40°
2026-05-04 09:03 38.57944 39.09248 27904 ft 464 kts 40°
2026-05-04 09:03 38.60466 39.11806 27904 ft 464 kts 40°
2026-05-04 09:03 38.62978 39.14366 27909 ft 464 kts 40°
2026-05-04 09:03 38.65487 39.16934 27904 ft 464 kts 41°
2026-05-04 09:04 38.68000 39.19509 27907 ft 464 kts 41°
2026-05-04 09:04 38.70475 39.22169 27908 ft 463 kts 47°
2026-05-04 09:04 38.72625 39.25181 27905 ft 459 kts 55°
2026-05-04 09:04 38.74639 39.28340 27897 ft 460 kts 55°
2026-05-04 09:05 38.76671 39.31511 27890 ft 460 kts 55°
2026-05-04 09:05 38.78702 39.34674 27892 ft 460 kts 55°
2026-05-04 09:05 38.80740 39.37846 27888 ft 461 kts 55°
2026-05-04 09:05 38.82789 39.41033 27888 ft 462 kts 55°
2026-05-04 09:06 38.84825 39.44198 27886 ft 462 kts 55°
2026-05-04 09:07 38.99163 39.66462 27892 ft 464 kts 56°
2026-05-04 09:08 39.01219 39.69653 27897 ft 465 kts 55°
2026-05-04 09:08 39.03284 39.72858 27893 ft 464 kts 56°
2026-05-04 09:08 39.05338 39.76053 27902 ft 465 kts 56°
2026-05-04 09:08 39.07383 39.79237 27895 ft 465 kts 56°
2026-05-04 09:09 39.09441 39.82447 27889 ft 464 kts 56°
2026-05-04 09:09 39.11482 39.85637 27884 ft 463 kts 54°
2026-05-04 09:09 39.13528 39.88835 27897 ft 464 kts 56°
2026-05-04 09:09 39.15603 39.92083 27895 ft 465 kts 56°
2026-05-04 09:10 39.17639 39.95267 27916 ft 465 kts 56°
2026-05-04 09:10 39.19704 39.98501 27922 ft 465 kts 56°
2026-05-04 09:10 39.21741 40.01717 27917 ft 465 kts 56°
2026-05-04 09:10 39.23789 40.04977 27881 ft 464 kts 56°
2026-05-04 09:11 39.25783 40.08164 27893 ft 463 kts 57°
2026-05-04 09:11 39.27803 40.11394 27896 ft 463 kts 56°
2026-05-04 09:11 39.29856 40.14678 27918 ft 467 kts 57°
2026-05-04 09:11 39.31899 40.17950 28028 ft 480 kts 56°
2026-05-04 09:12 39.34030 40.21353 28152 ft 492 kts 56°
2026-05-04 09:12 39.36198 40.24777 28276 ft 501 kts 55°
2026-05-04 09:14 39.52032 40.49640 31454 ft 508 kts 54°
2026-05-04 09:14 39.54273 40.53196 31964 ft 506 kts 54°
2026-05-04 09:14 39.56459 40.56669 32469 ft 503 kts 54°
2026-05-04 09:14 39.58652 40.60188 32969 ft 501 kts 54°
2026-05-04 09:15 39.60847 40.63755 33458 ft 499 kts 55°
2026-05-04 09:15 39.62998 40.67278 33923 ft 498 kts 55°
2026-05-04 09:15 39.65120 40.70767 34345 ft 496 kts 55°
2026-05-04 09:15 39.67234 40.74265 34749 ft 495 kts 55°
2026-05-04 09:17 39.84305 41.02128 35945 ft 491 kts 54°
2026-05-04 09:18 39.88563 41.09072 35946 ft 491 kts 54°
2026-05-04 09:18 39.92817 41.16033 35948 ft 491 kts 54°
2026-05-04 09:19 39.96533 41.23370 35947 ft 485 kts 69°
2026-05-04 09:19 39.99182 41.31395 35941 ft 484 kts 71°
2026-05-04 09:20 40.01833 41.39494 35943 ft 485 kts 71°
2026-05-04 09:20 40.04480 41.47574 35931 ft 485 kts 71°
2026-05-04 09:21 40.07108 41.55621 35926 ft 484 kts 71°
2026-05-04 09:21 40.09735 41.63715 35923 ft 484 kts 71°
2026-05-04 09:22 40.12347 41.71798 35917 ft 484 kts 71°
2026-05-04 09:22 40.14964 41.79925 35914 ft 484 kts 71°
2026-05-04 09:23 40.17540 41.87986 35913 ft 484 kts 71°
2026-05-04 09:23 40.20136 41.96152 35912 ft 484 kts 71°
2026-05-04 09:25 40.29120 42.24531 35746 ft 485 kts 71°
2026-05-04 09:25 40.30419 42.28657 35489 ft 483 kts 71°
2026-05-04 09:26 40.31691 42.32720 35246 ft 482 kts 71°
2026-05-04 09:26 40.32944 42.36724 34747 ft 481 kts 71°
2026-05-04 09:26 40.34211 42.40786 34230 ft 480 kts 71°
2026-05-04 09:26 40.35471 42.44830 33666 ft 480 kts 71°
2026-05-04 09:27 40.36725 42.48857 33136 ft 478 kts 71°
2026-05-04 09:27 40.37978 42.52876 32621 ft 474 kts 71°
2026-05-04 09:27 40.39225 42.56889 32148 ft 471 kts 71°
2026-05-04 09:27 40.40451 42.60855 31659 ft 467 kts 71°
2026-05-04 09:28 40.41652 42.64745 31178 ft 464 kts 71°
2026-05-04 09:28 40.42856 42.68656 30711 ft 461 kts 71°
2026-05-04 09:28 40.44046 42.72527 30238 ft 459 kts 71°
2026-05-04 09:28 40.45235 42.76402 29733 ft 456 kts 71°
2026-05-04 09:29 40.46424 42.80262 29272 ft 451 kts 71°
2026-05-04 09:29 40.47596 42.84056 28815 ft 447 kts 71°
2026-05-04 09:29 40.48745 42.87776 28403 ft 442 kts 71°
2026-05-04 09:29 40.49893 42.91501 27965 ft 438 kts 71°
2026-05-04 09:30 40.51046 42.95249 27542 ft 435 kts 71°
2026-05-04 09:30 40.52157 42.98866 27118 ft 431 kts 72°
2026-05-04 09:30 40.53285 43.02553 26717 ft 429 kts 72°
2026-05-04 09:30 40.54374 43.06128 26308 ft 426 kts 72°
2026-05-04 09:31 40.55507 43.09720 25904 ft 425 kts 68°
2026-05-04 09:31 40.56994 43.13099 25486 ft 426 kts 59°
2026-05-04 09:31 40.58592 43.16338 25070 ft 424 kts 60°
2026-05-04 09:31 40.60192 43.19587 24620 ft 422 kts 60°
2026-05-04 09:32 40.61789 43.22836 24195 ft 420 kts 60°
2026-05-04 09:32 40.63370 43.26066 23748 ft 419 kts 60°
2026-05-04 09:34 40.74058 43.47969 20777 ft 390 kts 60°
2026-05-04 09:34 40.75536 43.51004 20313 ft 388 kts 60°
2026-05-04 09:34 40.76989 43.53997 19839 ft 386 kts 60°
2026-05-04 09:34 40.78434 43.56975 19366 ft 384 kts 60°
2026-05-04 09:35 40.79852 43.59901 19018 ft 379 kts 60°
2026-05-04 09:35 40.81246 43.62781 18918 ft 367 kts 60°
2026-05-04 09:35 40.82597 43.65572 18766 ft 357 kts 60°
2026-05-04 09:35 40.84012 43.68218 18613 ft 350 kts 50°
2026-05-04 09:37 40.96264 43.80994 15642 ft 288 kts 39°
2026-05-04 09:37 40.97838 43.82606 15276 ft 283 kts 39°
2026-05-04 09:38 40.99390 43.84201 14894 ft 282 kts 39°
2026-05-04 09:38 41.00441 43.85281 14648 ft 281 kts 39°
2026-05-04 09:38 41.01962 43.86840 14294 ft 279 kts 39°
2026-05-04 09:38 41.03487 43.88399 13925 ft 278 kts 39°
2026-05-04 09:39 41.05005 43.90000 13545 ft 276 kts 46°
2026-05-04 09:39 41.06093 43.92029 13240 ft 265 kts 70°
2026-05-04 09:39 41.06553 43.95094 12827 ft 254 kts 98°
2026-05-04 09:39 41.06371 43.96619 12561 ft 241 kts 112°
2026-05-04 09:40 41.05769 43.98595 12195 ft 225 kts 120°
2026-05-04 09:40 41.04999 44.00292 11847 ft 212 kts 139°
2026-05-04 09:40 41.03807 44.01318 11542 ft 202 kts 164°
2026-05-04 09:40 41.02435 44.01537 11262 ft 199 kts 187°
2026-05-04 09:41 41.01127 44.00996 10993 ft 198 kts 203°
2026-05-04 09:42 40.92674 43.96097 9011 ft 158 kts 203°
2026-05-04 09:43 40.91712 43.95543 8770 ft 142 kts 203°
2026-05-04 09:43 40.90765 43.94997 8562 ft 151 kts 203°
2026-05-04 09:43 40.89802 43.94439 8333 ft 149 kts 204°
2026-05-04 09:43 40.88849 43.93888 8086 ft 149 kts 204°
2026-05-04 09:44 40.87905 43.93342 7856 ft 149 kts 204°
2026-05-04 09:44 40.86966 43.92802 7660 ft 148 kts 204°
2026-05-04 09:44 40.86040 43.92269 7415 ft 146 kts 203°
2026-05-04 09:46 40.79590 43.88525 5827 ft 141 kts 204°
2026-05-04 09:46 40.78692 43.88013 5639 ft 142 kts 201°
2026-05-04 09:46 40.77772 43.87484 5408 ft 143 kts 202°
2026-05-04 09:47 40.76877 43.86966 5181 ft 142 kts 200°
2026-05-04 09:47 40.75982 43.86461 5016 ft 137 kts 201°
2026-05-04 09:49 40.75144 43.85644 4981 ft 6 kts 35°
2026-05-04 09:49 40.75181 43.85681 4982 ft 8 kts 39°
2026-05-04 09:49 40.75228 43.85710 4983 ft 8 kts 346°
2026-05-04 09:51 40.75262 43.85672 4983 ft 0 kts 321°